Location: Deuil
(48.9767°N, 2.3272°E)
Time: 15:50:55
(UTC+00:00)

SJ-11-01 - Pass Details

Date: 24 October 2021
Orbit: 685 x 700 km, 97.9° (Epoch: 28 November)

Event Time Altitude Azimuth Distance (km) Brightness Sun altitude
Rises 18:09:48 0° 167° (SSE) 3,048 7.5 -14.8°
Reaches altitude 10° 18:12:02 10° 168° (SSE) 2,138 6.7 -15.1°
Maximum altitude 18:16:43 81° 256° (WSW) 708 4.4 -15.9°
Drops below altitude 10° 18:21:29 10° 345° (NNW) 2,165 7.0 -16.7°
Sets 18:23:45 0° 346° (NNW) 3,089 7.8 -17.0°
